Terug naar catalogus

GEOSKAN-1

ActiefWetenschapSSO
NORAD 64880·PAYLOAD·🇷🇺 Russia
Deze satellietnaam is nog niet bevestigd door officiële bronnen.

Gelanceerd Jul 25, 2025 vanaf Vostochny Cosmodrome

Loading…

Volgende Passages (komende 24 uur)

TLE

VersSource: Space-Track

Epoch: Sep 14, 2026, 14:59 UTC

1 64880U 25155E   26257.62460052  .00009305  00000-0  29939-3 0  9993
2 64880  97.4662 226.9107 0006230 203.9850 156.1102 15.32440577 94464

Volg GEOSKAN-1 in realtime met AllMySat

Download on the App Store